Flag for U.S.A. Weather past 2 weeks in Downey, California, U.S.A.

Now
77 °F

Scattered clouds.


Feels Like: 79 °F
Forecast: 68 / 86 °F
Wind: 5 mph from North

Location: Long Beach Airport

Current Time: Aug 3, 2015 at 11:20:19 AM

Latest Report: Aug 3, 2015 at 10:53 AM


Visibility: 9 mi

Pressure: 29.90 "Hg

Humidity: 64%

Dew point: 64 °F

Location of DowneyLocation

Historic Weather in Downey — Graph

°F

Downey temperature yesterday

Maximum temperature yesterday: 81 °F (at 5:53 PM)
Minimum temperature yesterday: 69 °F (at 3:53 AM)
Average temperature yesterday: 74 °F

Past Weeks' High & Low Weather Summary

 TemperatureHumidityPressure
High88 °F (Jul 19, 2:53 PM)91% (Jul 20, 9:53 PM)30.08 "Hg (Jul 20, 9:53 PM)
Low67 °F (Jul 26, 5:53 AM)38% (Jul 25, 4:53 PM)29.81 "Hg (Aug 2, 6:53 PM)
Average75 °F71%29.94 "Hg
* Reported Jul 19 9:53 AM — Aug 3 9:53 AM, Downey, Weather by CustomWeather, © 2015

Note: Actual official high and low records may vary slightly from our data, if they occured in-between our weather recording intervals... More about our weather records

Advertising

Downey weather history for previous 24 hours

 ConditionsComfort  
Time TempWeatherWind HumidityBarometerVisibility
9:53 AM
Mon, Aug 3
75 °FScattered clouds.No wind69%29.91 "Hg9 mi
8:53 AM72 °FPartly sunny.No wind76%29.90 "Hg8 mi
7:53 AM71 °FOvercast.5 mph78%29.89 "Hg9 mi
6:53 AM71 °FOvercast.No wind76%29.89 "Hg10 mi
5:53 AM70 °FOvercast.No wind79%29.88 "Hg10 mi
4:53 AM70 °FOvercast.No wind81%29.87 "Hg10 mi
3:53 AM70 °FClear.3 mph81%29.86 "Hg10 mi
2:53 AM70 °FClear.3 mph81%29.86 "Hg9 mi
1:53 AM70 °FClear.3 mph84%29.86 "Hg10 mi
12:53 AM70 °FClear.5 mph84%29.86 "Hg10 mi
11:53 PM
Sun, Aug 2
71 °FClear.No wind78%29.86 "Hg10 mi
10:53 PM73 °FClear.No wind69%29.86 "Hg10 mi
9:53 PM73 °FClear.6 mph69%29.85 "Hg10 mi
8:53 PM73 °FClear.7 mph66%29.83 "Hg10 mi
7:53 PM74 °FSunny.12 mph69%29.83 "Hg10 mi
6:53 PM78 °FSunny.9 mph60%29.81 "Hg10 mi
5:53 PM81 °FSunny.8 mph56%29.82 "Hg10 mi
4:53 PM80 °FSunny.7 mph60%29.83 "Hg10 mi
3:53 PM79 °FSunny.10 mph62%29.84 "Hg10 mi
2:53 PM78 °FSunny.9 mph62%29.86 "Hg10 mi
1:53 PM78 °FSunny.9 mph62%29.88 "Hg10 mi
12:53 PM78 °FSunny.7 mph62%29.90 "Hg9 mi
11:53 AM77 °FSunny.8 mph64%29.91 "Hg10 mi
Weather by CustomWeather, © 2015

See weather overviewHow to use our weather pages